STARLINK-34557, 64726

Orbit data source: Space-Track

STARLINK-34557, 64726 is a payload satellite owned by SpaceX/Seattle (US) in LEO that was launched on Wed, 02 Jul 2025 UTC via an FALCON 9 launch vehicle from the Air Force Eastern Test Range (AFETR). Payload-class satellites include a variety of spacecraft equipped with specific instruments for various scientific and technological missions. These include communications satellites like Starlink; space stations such as the ISS; scientific satellites like the Hubble; Earth observation satellites from companies like Planet Labs, Umbra, and HawkEye 360; GPS; miniature CubeSats for education and research; and military/defense satellites.

Loading next visibility...
Identifier
64726, 2025-144C
Orbit
LEO
Last TLE update
18 hours ago
Origin
Manufacturer
SpaceX/Seattle
Mission
Operational spacecraft
Bus & Motor
STARLINK V2MO, Unknown motor
Mass
575 kg wet, ~530 kg dry
Launch date (UTC)
2025-07-02 (1 week ago)
Launch vehicle
FALCON 9
Launch site
Air Force Eastern Test Range (AFETR)
Object type
Payload
Rocket body
Debris
Shape & HBR
Unknown
Radar Cross Section
RCS unknown

Expand to show TLE details & history

TLE from 18 hours ago
0 STARLINK-34557
1 64726U 25144C   25191.66668981 -.01097611  00000-0 -45503-2 0  9995
2 64726  53.1542 231.7778 0000894  67.7436   0.1789 15.87650701  2575
Epoch: 2025-07-10T16:00Z
TLE epoch observation values (Epoch: 2025-07-10T16:00:01.999Z)
Latitude
48.01547°
Longitude
118.83152°
Altitude
313.619 km
Speed
7.726 km/s
True Right ascension
19h 10m 40s
True Declination
47° 49' 59"
Sunlit
Object was in full shadow at epoch
Visualization orbit readout
Latitude
-36.82328°
Longitude
25.30981°
Altitude
325.938 km
Speed
7.712 km/s
Apparent Right ascension
11h 31m 07s
Apparent Declination
-40° 21' 28"
Sunlit
Object is in daylight
Visualization observer readout
Local Sidereal Time
21:56:54
Azimuth
260.96° W
Elevation
-72.041°
Doppler factor
1
Orbital elements
Apogee altitude
309.733 km
Perigee altitude
308.537 km
Semi-major axis
6,687.272 km
Eccentricity
0.00009
Inclination
53.1542°
RAAN
231.7778°
Arg. of periapsis
67.7436°
True anomaly
Unknown
Mean anomaly
0.1789°
Eccentric anomaly
Unknown
Mean motion
3.9689 °/min
Orbital period
90.71 mins
BSTAR
-0.0045503
Loading maneuver chart data...
Loading SW <> Apogee altitude chart data...
Loading historical data...
Loading historical data...
Loading historical data...
Loading historical data...
Loading historical data...
Loading historical data...
Loading historical data...

STARLINK-34557 Visibility forecast

Observer location: undefined°, undefined°

Span
Click to sort rows by Start time (UTC) header in descending order
Start Az.
Max El. time (UTC)
Max El. Az.
Max El.
End time (UTC)
End Az.
4 mins2025-07-11 11:51:09.305Z326.646° NNW2025-07-11 11:53:09.305Z42.071° NE34.309°2025-07-11 11:55:09.305Z107.354° ESE
|